Regional Weather Roundup
Issued by NWS

Home | Current Version | Previous Version | Text Only | Print | Product List | Glossary On
Versions: 1 2 3 4 5 6 7 8 9 10 11 12 13 14 15 16 17 18 19 20 21 22 23 24 25 26 27
000
ASUS42 KFFC 290003
RWRGA
WEATHER ROUNDUP FOR GEORGIA
NATIONAL WEATHER SERVICE PEACHTREE CITY GA
800 PM EDT SUN AUG 28 2016

NOTE: "FAIR" INDICATES FEW OR NO CLOUDS BELOW 12,000 FEET WITH NO
SIGNIFICANT WEATHER AND/OR OBSTRUCTIONS TO VISIBILITY.

* = USE WITH CAUTION. THE STATIONS MARKED WITH AN ASTERISK MAY NOT
REPORT WEATHER SUCH AS PRECIPITATION, FOG, OR THUNDER AND ARE NOT
QUALITY CONTROLLED BY NWS.

THE REMARK "TC" DENOTES TEMPERATURE READING IN DEGREES CELSIUS.

GAZ001>058-290100-
NORTH GEORGIA

CITY           SKY/WX    TMP DP  RH WIND       PRES   REMARKS
ATLANTA        MOCLDY    88  68  51 E12       30.07R HX  91
6HR MIN TEMP:  87; 6HR MAX TEMP:  91;

ATHENS         CLEAR     83  73  72 NE5       30.08R
6HR MIN TEMP:  83; 6HR MAX TEMP:  92;

CHAMBLEE       PTCLDY    86  67  52 VRB6      30.08R
6HR MIN TEMP:  86; 6HR MAX TEMP:  92;

PEACHTREE CITY CLEAR     88  68  51 NE3       30.06R HX  91
6HR MIN TEMP:  86; 6HR MAX TEMP:  92;

ROME           CLOUDY    78  74  87 NE3       30.07R
6HR MIN TEMP:  75; 6HR MAX TEMP:  92; 6HR PCP:  0.68;

WEST ATLANTA   PTCLDY    87  67  51 NE8       30.06R HX  90
6HR MIN TEMP:  87; 6HR MAX TEMP:  92;

GAINESVILLE    PTCLDY    83  69  62 E5        30.13R
6HR MIN TEMP:  83; 6HR MAX TEMP:  90;

CARTERSVILLE   CLOUDY    83  70  64 N5        30.08R
6HR MIN TEMP:  83; 6HR MAX TEMP:  93;



CITY           SKY/WX    TMP DP  RH WIND       PRES   REMARKS
DALTON*        MOCLDY    77  73  88 CALM      30.09S
LAWRENCEVILLE* PTCLDY    84  72  65 NE7       30.09R
KENNESAW*      PTCLDY    88  68  51 SE6       30.03R HX  91
CANTON*        CLOUDY   N/A N/A N/A CALM      30.12R
BLAIRSVILLE*   LGT RAIN N/A N/A N/A MISG      30.17S
$$

GAZ059>098-102>109-290100-
CENTRAL GEORGIA

CITY           SKY/WX    TMP DP  RH WIND       PRES   REMARKS
AUGUSTA-BUSH   MOCLDY    86  68  54 E6        30.03R
6HR MIN TEMP:  86; 6HR MAX TEMP:  98;

AUGUSTA-DANIEL MOCLDY    91  66  43 E8        30.05R HX  93
6HR MIN TEMP:  91; 6HR MAX TEMP:  96;

COLUMBUS       PTCLDY    90  66  45 E7        30.00R HX  92
6HR MIN TEMP:  89; 6HR MAX TEMP:  94;

MACON          CLEAR     87  65  47 E7        30.01R
6HR MIN TEMP:  87; 6HR MAX TEMP:  97;

ROBINS AFB     CLEAR     84  71  64 E2        30.00R


CITY           SKY/WX    TMP DP  RH WIND       PRES   REMARKS
LAGRANGE*      CLEAR     90  73  56 CALM      30.04R HX  98
MILLEDGEVILLE* CLEAR     86  72  62 CALM      30.03R HX  92
$$

GAZ099>101-110>166-290100-
SOUTH GEORGIA

CITY           SKY/WX    TMP DP  RH WIND       PRES   REMARKS
SAVANNAH       CLOUDY    82  74  76 N12       30.03R
6HR MIN TEMP:  82; 6HR MAX TEMP:  94;

VALDOSTA       CLEAR     84  75  74 E8        29.99R HX  92
6HR MIN TEMP:  84; 6HR MAX TEMP:  95;

ALMA           CLEAR     85  67  54 E5        30.01R
6HR MIN TEMP:  85; 6HR MAX TEMP:  93;

ST SIMONS      CLEAR     83  73  72 E9        30.01S
6HR MIN TEMP:  83; 6HR MAX TEMP:  89;

FT STEWART     CLOUDY    84  70  62 E3        30.01R
ALBANY         PTCLDY    90  66  45 E5        29.99S HX  92
HUNTER AFB     CLOUDY    83  78  84 E10       30.00S HX  94
MOODY AFB      CLEAR     83  73  71 E6        29.98S
BRUNSWICK      CLEAR     82  75  78 E6        30.02S


CITY           SKY/WX    TMP DP  RH WIND       PRES   REMARKS
BAINBRIDGE*    CLEAR     90  68  48 NE6       29.97R HX  93
MOULTRIE*      CLEAR     88  70  55 E3        29.99S HX  92
VIDALIA*       MOCLDY    82  77  83 E7        30.03S HX  91
WAYCROSS*        N/A     86  76  71 E9        30.01R HX  96
DOUGLAS*       CLEAR     82  72  69 SE3       30.02R
$$




USA.gov is the U.S. government's official web portal to all federal, state and local government web resources and services.